Back to catalog

FENGYUN 1C DEB

AlivePO
NORAD 31754·DEBRIS·🇨🇳 China

Launched May 10, 1999 from Taiyuan Satellite Launch Center

Loading…

Next Passes (next 24 hours)

TLE

FreshSource: Space-Track

Epoch: Sep 13, 2026, 04:28 UTC

1 31754U 99025CFD 26256.18612602  .00001659  00000-0  49390-3 0  9991
2 31754  99.0626 243.5214 0049835 124.0491 236.5444 14.43875808  9145

Track FENGYUN 1C DEB in real time with AllMySat

Download on the App Store